Location: Gro�wechsungen
(51.4926°N, 10.6901°E)
Time: 06:55:53
(UTC+00:00)

MetOp-B - Pass Details

Date: 18 September 2020
Orbit: 819 x 821 km, 98.7° (Epoch: 22 October)

Event Time Altitude Azimuth Distance (km) Brightness Sun altitude
Exits shadow 19:41:03 44° 132° (SE) 1,131 4.4 -21.0°
Maximum altitude 19:42:39 65° 70° (ENE) 903 4.1 -21.2°
Drops below altitude 10° 19:47:58 10° 349° (N) 2,429 7.2 -21.9°
Sets 19:50:20 0° 347° (NNW) 3,365 8.0 -22.3°
